UAL1779 KSAN-KORD

Flight info

Callsign UAL1779
Flight time N/A
Altitude 35000
Route ZZOOO4 MTBAL DCT LANCY J78 DRK DCT KA33Q DCT RGINA DCT GOSIP/N0427F370 DCT LAA DCT HYS DCT IRK SHAIN2
Aircraft A320/M-SDE3FGHIRWY/LB1

Departure

Time 2026-05-05 15:19
Airport San Diego International Airport (KSAN)

Arrival

Time N/A
Airport Chicago O'Hare International Airport (KORD)
Time Latitude Longitude Altitude Speed Heading
2026-05-05 14:58 32.73346 -117.20058 22 ft 0 kts 263°
2026-05-05 15:04 32.73347 -117.20051 13 ft 4 kts 262°
2026-05-05 15:05 32.73357 -117.19997 22 ft 4 kts 289°
2026-05-05 15:05 32.73342 -117.19986 26 ft 4 kts 10°
2026-05-05 15:05 32.73324 -117.19990 24 ft 0 kts 11°
2026-05-05 15:10 32.73331 -117.19989 22 ft 2 kts 11°
2026-05-05 15:10 32.73350 -117.19984 22 ft 4 kts 11°
2026-05-05 15:10 32.73382 -117.19976 22 ft 6 kts 13°
2026-05-05 15:10 32.73426 -117.19964 23 ft 7 kts 13°
2026-05-05 15:11 32.73476 -117.19937 23 ft 9 kts 59°
2026-05-05 15:11 32.73470 -117.19863 24 ft 10 kts 104°
2026-05-05 15:11 32.73449 -117.19776 23 ft 12 kts 106°
2026-05-05 15:11 32.73424 -117.19673 23 ft 14 kts 106°
2026-05-05 15:12 32.73396 -117.19556 23 ft 15 kts 106°
2026-05-05 15:12 32.73364 -117.19427 23 ft 17 kts 106°
2026-05-05 15:12 32.73329 -117.19284 22 ft 19 kts 105°
2026-05-05 15:12 32.73290 -117.19123 22 ft 21 kts 106°
2026-05-05 15:13 32.73250 -117.18953 22 ft 22 kts 105°
2026-05-05 15:13 32.73205 -117.18768 23 ft 24 kts 106°
2026-05-05 15:13 32.73157 -117.18572 24 ft 26 kts 106°
2026-05-05 15:13 32.73105 -117.18362 23 ft 27 kts 107°
2026-05-05 15:14 32.73052 -117.18139 22 ft 29 kts 106°
2026-05-05 15:14 32.72996 -117.17907 23 ft 29 kts 105°
2026-05-05 15:14 32.72954 -117.17753 22 ft 11 kts 109°
2026-05-05 15:14 32.72956 -117.17672 22 ft 0 kts 71°
2026-05-05 15:17 32.72958 -117.17667 25 ft 1 kts 71°
2026-05-05 15:17 32.72963 -117.17649 23 ft 3 kts 71°
2026-05-05 15:18 32.72974 -117.17618 24 ft 5 kts 58°
2026-05-05 15:18 32.73007 -117.17599 22 ft 6 kts
2026-05-05 15:18 32.73034 -117.17637 22 ft 7 kts 285°
2026-05-05 15:18 32.73082 -117.17835 22 ft 57 kts 287°
2026-05-05 15:19 32.73247 -117.18510 23 ft 112 kts 287°
2026-05-05 15:19 32.73510 -117.19575 27 ft 155 kts 287°
2026-05-05 15:19 32.73828 -117.20789 615 ft 148 kts 289°
2026-05-05 15:19 32.74135 -117.21927 1266 ft 145 kts 286°
2026-05-05 15:20 32.74409 -117.23081 1754 ft 149 kts 285°
2026-05-05 15:20 32.74703 -117.24358 2002 ft 171 kts 285°
2026-05-05 15:20 32.75038 -117.25806 2281 ft 191 kts 285°
2026-05-05 15:20 32.75403 -117.27357 2774 ft 200 kts 285°
2026-05-05 15:21 32.75803 -117.29034 3018 ft 223 kts 285°
2026-05-05 15:21 32.76236 -117.30844 3637 ft 230 kts 285°
2026-05-05 15:21 32.76542 -117.32708 4384 ft 233 kts 266°
2026-05-05 15:21 32.75939 -117.34483 5080 ft 238 kts 227°
2026-05-05 15:22 32.74503 -117.35460 5793 ft 247 kts 192°
2026-05-05 15:22 32.72785 -117.35260 6532 ft 256 kts 156°
2026-05-05 15:22 32.71350 -117.34015 7206 ft 263 kts 140°
2026-05-05 15:22 32.70003 -117.32521 7930 ft 267 kts 138°
2026-05-05 15:23 32.68647 -117.30952 8653 ft 271 kts 137°
2026-05-05 15:23 32.67311 -117.29392 9340 ft 275 kts 138°
2026-05-05 15:23 32.65927 -117.27786 10035 ft 280 kts 138°
2026-05-05 15:23 32.64542 -117.26150 10661 ft 284 kts 133°
2026-05-05 15:24 32.63455 -117.24163 11306 ft 289 kts 115°
2026-05-05 15:24 32.62861 -117.21816 11554 ft 311 kts 97°
2026-05-05 15:24 32.62627 -117.19163 11690 ft 334 kts 96°
2026-05-05 15:24 32.62385 -117.16342 11838 ft 354 kts 96°
2026-05-05 15:25 32.62130 -117.13390 12288 ft 362 kts 95°
2026-05-05 15:25 32.62185 -117.10396 12874 ft 366 kts 81°
2026-05-05 15:25 32.62842 -117.07466 13490 ft 369 kts 68°
2026-05-05 15:25 32.63781 -117.04608 14090 ft 373 kts 68°
2026-05-05 15:26 32.64722 -117.01744 14643 ft 376 kts 68°
2026-05-05 15:26 32.65660 -116.98878 15186 ft 379 kts 68°
2026-05-05 15:26 32.66427 -116.95867 15719 ft 382 kts 79°
2026-05-05 15:26 32.66723 -116.92731 16248 ft 385 kts 89°
2026-05-05 15:27 32.66789 -116.89545 16795 ft 387 kts 89°
2026-05-05 15:27 32.66857 -116.86334 17340 ft 390 kts 89°
2026-05-05 15:27 32.66972 -116.83103 17883 ft 393 kts 83°
2026-05-05 15:27 32.67596 -116.79931 18411 ft 397 kts 69°
2026-05-05 15:28 32.68845 -116.77009 18902 ft 398 kts 54°
2026-05-05 15:28 32.70620 -116.74538 19395 ft 399 kts 40°
2026-05-05 15:28 32.72895 -116.72591 19888 ft 399 kts 26°
2026-05-05 15:28 32.75430 -116.71244 20397 ft 400 kts 20°
2026-05-05 15:29 32.77980 -116.69998 20883 ft 403 kts 20°
2026-05-05 15:29 32.80580 -116.68734 21363 ft 406 kts 20°
2026-05-05 15:29 32.83206 -116.67459 21838 ft 409 kts 20°
2026-05-05 15:29 32.85843 -116.66174 22306 ft 412 kts 20°
2026-05-05 15:30 32.88504 -116.64868 22749 ft 415 kts 20°
2026-05-05 15:30 32.91182 -116.63552 23200 ft 418 kts 20°
2026-05-05 15:30 32.92971 -116.62673 23497 ft 420 kts 20°
2026-05-05 15:30 32.95686 -116.61340 23878 ft 423 kts 20°
2026-05-05 15:31 32.98421 -116.59995 24200 ft 427 kts 20°
2026-05-05 15:31 33.01186 -116.58635 24501 ft 432 kts 20°
2026-05-05 15:31 33.03967 -116.57236 24794 ft 436 kts 20°
2026-05-05 15:31 33.06766 -116.55785 25094 ft 440 kts 21°
2026-05-05 15:32 33.09581 -116.54299 25377 ft 444 kts 21°
2026-05-05 15:32 33.12419 -116.52792 25646 ft 449 kts 21°
2026-05-05 15:32 33.15278 -116.51273 25945 ft 453 kts 21°
2026-05-05 15:32 33.18177 -116.49740 26233 ft 456 kts 20°
2026-05-05 15:33 33.21094 -116.48207 26522 ft 460 kts 20°
2026-05-05 15:33 33.24037 -116.46668 26804 ft 463 kts 20°
2026-05-05 15:33 33.27003 -116.45120 27092 ft 466 kts 20°
2026-05-05 15:33 33.29990 -116.43557 27360 ft 470 kts 20°
2026-05-05 15:34 33.32949 -116.42005 27635 ft 473 kts 20°
2026-05-05 15:34 33.35950 -116.40338 27911 ft 478 kts 26°
2026-05-05 15:34 33.38767 -116.38184 28185 ft 485 kts 35°
2026-05-05 15:34 33.41313 -116.35511 28454 ft 490 kts 45°
2026-05-05 15:35 33.43510 -116.32387 28724 ft 494 kts 54°
2026-05-05 15:35 33.45521 -116.29021 29002 ft 498 kts 54°
2026-05-05 15:35 33.47536 -116.25647 29263 ft 500 kts 54°
2026-05-05 15:35 33.49572 -116.22245 29617 ft 501 kts 54°
2026-05-05 15:36 33.51605 -116.18850 29987 ft 502 kts 54°
2026-05-05 15:36 33.53644 -116.15449 30279 ft 503 kts 54°
2026-05-05 15:36 33.55680 -116.12050 30581 ft 504 kts 54°
2026-05-05 15:36 33.57728 -116.08623 30888 ft 504 kts 54°
2026-05-05 15:37 33.59718 -116.05150 31195 ft 505 kts 60°
2026-05-05 15:37 33.61311 -116.01472 31494 ft 504 kts 69°
2026-05-05 15:37 33.62665 -115.97573 31794 ft 505 kts 69°
2026-05-05 15:37 33.64020 -115.93668 32087 ft 507 kts 69°
2026-05-05 15:38 33.65390 -115.89743 32367 ft 508 kts 69°
2026-05-05 15:38 33.66763 -115.85829 32673 ft 509 kts 69°
2026-05-05 15:38 33.68141 -115.81908 32981 ft 511 kts 69°
2026-05-05 15:38 33.69521 -115.77974 33279 ft 512 kts 69°
2026-05-05 15:39 33.70902 -115.74017 33578 ft 514 kts 70°
2026-05-05 15:39 33.72281 -115.70058 33856 ft 515 kts 70°
2026-05-05 15:39 33.73661 -115.66083 34088 ft 516 kts 70°
2026-05-05 15:39 33.75045 -115.62088 34332 ft 517 kts 70°
2026-05-05 15:40 33.76419 -115.58116 34586 ft 516 kts 70°
2026-05-05 15:40 33.77799 -115.54119 34835 ft 516 kts 70°
2026-05-05 15:40 33.79161 -115.50169 34922 ft 518 kts 70°
2026-05-05 15:41 33.81937 -115.42102 34944 ft 524 kts 70°
2026-05-05 15:41 33.84726 -115.34005 34939 ft 525 kts 70°
2026-05-05 15:42 33.87523 -115.25865 34938 ft 526 kts 70°
2026-05-05 15:42 33.90309 -115.17732 34930 ft 527 kts 70°
2026-05-05 15:43 33.93097 -115.09561 34923 ft 527 kts 70°
2026-05-05 15:43 33.95885 -115.01388 34912 ft 527 kts 71°
2026-05-05 15:44 33.98648 -114.93253 34907 ft 528 kts 71°
2026-05-05 15:44 34.01431 -114.85024 34900 ft 529 kts 71°
2026-05-05 15:45 34.04189 -114.76849 34895 ft 530 kts 71°
2026-05-05 15:45 34.06969 -114.68594 34891 ft 530 kts 71°
2026-05-05 15:46 34.09740 -114.60351 34881 ft 531 kts 71°
2026-05-05 15:46 34.12518 -114.52071 34877 ft 532 kts 71°
2026-05-05 15:47 34.15294 -114.43785 34869 ft 532 kts 71°
2026-05-05 15:47 34.18049 -114.35535 34865 ft 533 kts 72°
2026-05-05 15:48 34.20806 -114.27217 34866 ft 534 kts 72°
2026-05-05 15:48 34.23562 -114.18884 34866 ft 535 kts 72°
2026-05-05 15:49 34.26333 -114.10515 34863 ft 536 kts 72°
2026-05-05 15:49 34.28930 -114.02057 34865 ft 535 kts 76°
2026-05-05 15:50 34.31219 -113.93496 34869 ft 535 kts 77°
2026-05-05 15:50 34.33455 -113.84965 34860 ft 536 kts 77°
2026-05-05 15:51 34.35792 -113.76380 34854 ft 537 kts 76°
2026-05-05 15:51 34.38178 -113.67802 34853 ft 539 kts 76°
2026-05-05 15:52 34.40555 -113.59182 34847 ft 540 kts 77°
2026-05-05 15:52 34.42907 -113.50537 34845 ft 541 kts 77°
2026-05-05 15:53 34.45245 -113.41884 34843 ft 541 kts 77°
2026-05-05 15:53 34.47591 -113.33203 34845 ft 543 kts 77°
2026-05-05 15:54 34.49947 -113.24494 34847 ft 544 kts 77°
2026-05-05 15:54 34.52299 -113.15757 34842 ft 545 kts 77°
2026-05-05 15:55 34.54643 -113.07011 34842 ft 545 kts 78°
2026-05-05 15:55 34.56975 -112.98255 34851 ft 546 kts 77°
2026-05-05 15:56 34.59323 -112.89467 34826 ft 547 kts 77°
2026-05-05 15:56 34.61664 -112.80675 34861 ft 548 kts 78°
2026-05-05 15:57 34.63999 -112.71850 34911 ft 549 kts 78°
2026-05-05 15:57 34.66329 -112.63016 34958 ft 549 kts 78°
2026-05-05 15:58 34.68658 -112.54160 35003 ft 549 kts 78°
2026-05-05 15:58 34.70999 -112.45373 35015 ft 551 kts 75°
2026-05-05 15:59 34.73804 -112.36679 35011 ft 554 kts 71°
2026-05-05 15:59 34.76878 -112.28068 34979 ft 555 kts 71°
2026-05-05 16:00 34.79874 -112.19422 34945 ft 554 kts 72°
2026-05-05 16:00 34.82732 -112.10727 34931 ft 553 kts 73°
2026-05-05 16:01 34.85554 -112.02002 34971 ft 554 kts 73°
2026-05-05 16:01 34.88408 -111.93283 34997 ft 554 kts 72°
2026-05-05 16:02 34.91268 -111.84637 35008 ft 554 kts 72°
2026-05-05 16:02 34.94094 -111.76070 35801 ft 507 kts 68°
2026-05-05 16:02 34.95345 -111.72273 37107 ft 461 kts 68°
2026-05-05 16:03 34.96497 -111.68778 38205 ft 432 kts 68°
2026-05-05 16:03 34.97588 -111.65467 39214 ft 410 kts 68°
2026-05-05 16:03 34.98621 -111.62332 40109 ft 387 kts 68°
2026-05-05 16:03 34.99600 -111.59366 40765 ft 368 kts 68°
2026-05-05 16:04 35.00560 -111.56455 40617 ft 373 kts 68°
2026-05-05 16:04 35.01553 -111.53444 39842 ft 395 kts 68°
2026-05-05 16:04 35.02599 -111.50269 39390 ft 407 kts 68°
2026-05-05 16:04 35.03627 -111.47151 39796 ft 393 kts 68°
2026-05-05 16:05 35.04620 -111.44139 40473 ft 373 kts 68°
2026-05-05 16:05 35.06563 -111.38247 39987 ft 388 kts 68°
2026-05-05 16:05 35.07591 -111.35130 39426 ft 403 kts 68°
2026-05-05 16:06 35.08644 -111.31933 39157 ft 412 kts 68°
2026-05-05 16:06 35.09737 -111.28583 38190 ft 433 kts 69°
2026-05-05 16:06 35.10795 -111.25115 37390 ft 440 kts 70°
2026-05-05 16:06 35.11834 -111.21598 36720 ft 442 kts 70°
2026-05-05 16:07 35.12894 -111.18047 36111 ft 443 kts 70°
2026-05-05 16:07 35.13980 -111.14513 35532 ft 444 kts 69°
2026-05-05 16:07 35.15088 -111.11007 35107 ft 442 kts 69°
2026-05-05 16:07 35.16214 -111.07500 34968 ft 443 kts 69°
2026-05-05 16:08 35.17348 -111.03991 35010 ft 446 kts 69°
2026-05-05 16:08 35.19628 -110.96925 35009 ft 447 kts 69°
2026-05-05 16:09 35.21885 -110.89853 35005 ft 447 kts 69°
2026-05-05 16:09 35.24126 -110.82780 35009 ft 447 kts 69°
2026-05-05 16:10 35.26375 -110.75669 35005 ft 447 kts 69°
2026-05-05 16:10 35.28614 -110.68578 35013 ft 447 kts 69°
2026-05-05 16:11 35.30849 -110.61477 35015 ft 447 kts 69°
2026-05-05 16:12 35.35329 -110.47246 35019 ft 448 kts 69°
2026-05-05 16:13 35.40896 -110.29412 35023 ft 448 kts 69°
2026-05-05 16:13 35.43098 -110.22332 35026 ft 448 kts 69°
2026-05-05 16:14 35.47542 -110.07983 35025 ft 448 kts 69°
2026-05-05 16:15 35.52126 -109.93777 35023 ft 447 kts 65°
2026-05-05 16:16 35.57431 -109.80009 35022 ft 447 kts 65°
2026-05-05 16:17 35.61286 -109.69563 35020 ft 447 kts 66°
2026-05-05 16:18 35.65094 -109.59129 35015 ft 447 kts 66°
2026-05-05 16:19 35.68521 -109.49806 35013 ft 447 kts 66°
2026-05-05 16:19 35.72763 -109.38206 35015 ft 447 kts 66°
2026-05-05 16:20 35.77415 -109.25410 35016 ft 447 kts 66°
2026-05-05 16:22 35.83762 -109.07889 35020 ft 448 kts 66°
2026-05-05 16:23 35.88795 -108.93892 35018 ft 448 kts 66°
2026-05-05 16:23 35.92587 -108.83353 35019 ft 448 kts 66°
2026-05-05 16:24 35.95101 -108.76328 35019 ft 448 kts 66°
2026-05-05 16:25 35.98864 -108.65773 35022 ft 448 kts 66°
2026-05-05 16:25 36.02615 -108.55213 35020 ft 448 kts 66°
2026-05-05 16:26 36.07605 -108.41153 35022 ft 448 kts 66°
2026-05-05 16:27 36.10095 -108.34100 35019 ft 448 kts 66°
2026-05-05 16:27 36.12579 -108.27035 35019 ft 448 kts 66°
2026-05-05 16:28 36.15057 -108.19963 35023 ft 448 kts 66°
2026-05-05 16:28 36.17528 -108.12890 35019 ft 448 kts 66°
2026-05-05 16:29 36.20004 -108.05813 35019 ft 448 kts 66°
2026-05-05 16:29 36.22476 -107.98747 35020 ft 447 kts 66°
2026-05-05 16:30 36.24943 -107.91673 35025 ft 447 kts 67°
2026-05-05 16:30 36.27393 -107.84629 35021 ft 447 kts 67°
2026-05-05 16:31 36.29847 -107.77538 35021 ft 447 kts 67°
2026-05-05 16:31 36.32292 -107.70447 35024 ft 447 kts 67°
2026-05-05 16:32 36.34745 -107.63341 35022 ft 447 kts 67°
2026-05-05 16:32 36.37191 -107.56249 35020 ft 447 kts 67°
2026-05-05 16:33 36.39630 -107.49135 35021 ft 447 kts 67°
2026-05-05 16:33 36.42065 -107.42034 35016 ft 447 kts 67°
2026-05-05 16:34 36.44480 -107.34963 35020 ft 447 kts 67°
2026-05-05 16:34 36.47053 -107.27926 35019 ft 447 kts 61°
2026-05-05 16:35 36.50073 -107.21168 35022 ft 447 kts 61°
2026-05-05 16:35 36.53084 -107.14410 35019 ft 447 kts 61°
2026-05-05 16:36 36.56102 -107.07624 35015 ft 447 kts 61°
2026-05-05 16:36 36.59090 -107.00893 35017 ft 447 kts 61°
2026-05-05 16:37 36.62090 -106.94116 35020 ft 447 kts 61°
2026-05-05 16:37 36.65090 -106.87312 35018 ft 447 kts 61°
2026-05-05 16:38 36.68083 -106.80525 35018 ft 447 kts 61°
2026-05-05 16:38 36.71074 -106.73727 34771 ft 450 kts 62°
2026-05-05 16:39 36.74082 -106.66937 35253 ft 439 kts 61°
2026-05-05 16:39 36.75561 -106.63634 35462 ft 436 kts 61°
2026-05-05 16:39 36.77062 -106.60302 35326 ft 444 kts 61°
2026-05-05 16:40 36.78600 -106.56908 35147 ft 453 kts 61°
2026-05-05 16:40 36.80158 -106.53495 35308 ft 451 kts 60°
2026-05-05 16:40 36.81682 -106.50176 35680 ft 441 kts 60°
2026-05-05 16:40 36.83209 -106.46875 35873 ft 439 kts 60°
2026-05-05 16:41 36.84755 -106.43555 35732 ft 447 kts 60°
2026-05-05 16:41 36.86345 -106.40160 35569 ft 455 kts 59°
2026-05-05 16:41 36.87952 -106.36755 35716 ft 452 kts 59°
2026-05-05 16:41 36.89538 -106.33414 36059 ft 444 kts 59°
2026-05-05 16:42 36.91118 -106.30103 36199 ft 442 kts 59°
2026-05-05 16:42 36.92718 -106.26774 36008 ft 451 kts 58°
2026-05-05 16:42 36.94358 -106.23382 35877 ft 458 kts 58°
2026-05-05 16:42 36.96007 -106.19993 36048 ft 454 kts 58°
2026-05-05 16:43 36.97623 -106.16689 36322 ft 448 kts 58°
2026-05-05 16:43 36.99250 -106.13377 36405 ft 448 kts 58°
2026-05-05 16:43 37.00901 -106.10032 36271 ft 455 kts 57°
2026-05-05 16:43 37.02578 -106.06652 36184 ft 460 kts 57°
2026-05-05 16:44 37.04267 -106.03264 36327 ft 456 kts 57°
2026-05-05 16:44 37.05937 -105.99927 36577 ft 451 kts 57°
2026-05-05 16:44 37.09300 -105.93249 36505 ft 458 kts 56°
2026-05-05 16:45 37.12747 -105.86470 36613 ft 459 kts 56°
2026-05-05 16:45 37.14466 -105.83108 36852 ft 455 kts 55°
2026-05-05 16:45 37.16175 -105.79781 36890 ft 456 kts 56°
2026-05-05 16:46 37.17906 -105.76424 36774 ft 462 kts 55°
2026-05-05 16:46 37.19644 -105.73072 36735 ft 465 kts 55°
2026-05-05 16:46 37.21404 -105.69692 36897 ft 462 kts 55°
2026-05-05 16:46 37.23158 -105.66338 37091 ft 458 kts 54°
2026-05-05 16:47 37.26680 -105.59638 37039 ft 463 kts 54°
2026-05-05 16:47 37.30263 -105.52884 37157 ft 462 kts 54°
2026-05-05 16:48 37.32045 -105.49542 37322 ft 459 kts 54°
2026-05-05 16:48 37.33829 -105.46210 37352 ft 460 kts 53°
2026-05-05 16:48 37.37447 -105.39497 37253 ft 466 kts 53°
2026-05-05 16:49 37.39266 -105.36143 37380 ft 464 kts 53°
2026-05-05 16:49 37.41086 -105.32799 37542 ft 461 kts 53°
2026-05-05 16:49 37.44725 -105.26151 37587 ft 464 kts 52°
2026-05-05 16:50 37.48416 -105.19459 37737 ft 463 kts 52°
2026-05-05 16:50 37.50252 -105.16145 37895 ft 460 kts 52°
2026-05-05 16:50 37.52090 -105.12837 37898 ft 461 kts 52°
2026-05-05 16:51 37.53940 -105.09519 37746 ft 466 kts 52°
2026-05-05 16:51 37.55791 -105.06211 37708 ft 468 kts 52°
2026-05-05 16:51 37.57657 -105.02884 37932 ft 463 kts 52°
2026-05-05 16:51 37.59510 -104.99583 38160 ft 458 kts 51°
2026-05-05 16:52 37.63218 -104.93000 37993 ft 466 kts 51°
2026-05-05 16:52 37.66999 -104.86330 38171 ft 463 kts 51°
2026-05-05 16:53 37.68866 -104.83042 38379 ft 459 kts 51°
2026-05-05 16:53 37.70742 -104.79745 38339 ft 462 kts 51°
2026-05-05 16:53 37.72613 -104.76471 38161 ft 468 kts 50°
2026-05-05 16:53 37.74527 -104.73134 38136 ft 470 kts 50°
2026-05-05 16:54 37.76441 -104.69805 38322 ft 466 kts 50°
2026-05-05 16:54 37.78334 -104.66516 38516 ft 462 kts 50°
2026-05-05 16:54 37.82153 -104.59906 38363 ft 469 kts 50°
2026-05-05 16:55 37.86024 -104.53252 38479 ft 468 kts 50°
2026-05-05 16:55 37.87948 -104.49953 38639 ft 464 kts 49°
2026-05-05 16:55 37.89867 -104.46668 38670 ft 465 kts 49°
2026-05-05 16:56 37.93757 -104.40041 38543 ft 471 kts 49°
2026-05-05 16:56 37.97663 -104.33420 38757 ft 466 kts 49°
2026-05-05 16:57 37.99608 -104.30129 38859 ft 464 kts 49°
2026-05-05 16:57 38.01522 -104.26897 38840 ft 466 kts 49°
2026-05-05 16:57 38.05483 -104.20238 38748 ft 471 kts 48°
2026-05-05 16:58 38.07456 -104.16932 38849 ft 469 kts 48°
2026-05-05 16:58 38.09390 -104.13695 38959 ft 466 kts 48°
2026-05-05 16:58 38.13323 -104.07129 38952 ft 468 kts 48°
2026-05-05 16:59 38.17292 -104.00540 38959 ft 470 kts 48°
2026-05-05 16:59 38.19272 -103.97260 39077 ft 467 kts 48°
2026-05-05 16:59 38.21208 -103.93886 38510 ft 488 kts 62°